HYLAS 2

Last updated on Thu Aug 13 2026 00:02:59 GMT+0000 (Coordinated Universal Time)

1 38741U 12043B 26224.50044716 -.00000292 00000+0 00000+0 0 9998 2 38741 2.5675 80.3475 0001827 146.4809 222.6694 1.00532028 51342
UTC large
Height (km)
Speed (km/s)
/
Latitude / Longitude
Inclination (degrees)
Orbital Period (minutes)
Azimuth
Elevation
Range (km)
Doppler Factor

Next 0 passes for location: London (51.5072 / 0.1276)

No passes found over London.
HYLAS 2